When you browse on this site, cookies collect data to enhance your experience and personalize the content and advertising you see.
Visit our Privacy Policy to learn more. By continuing to use the site, you agree to this use of cookies and data.
  • In Austria
  • List of Countries
  • For 7 days
  • Water Temperature
  • Satellite Maps
  • Weather Map
  • News
  • Weather Widgets
  • user-avatar
    Login

    Hourly Weather Fedkovo

    Today, 18 February, Monday

    Time Temperature Precipitation Wind Pressure Humidity
    00:00 -5°C° 0 mm 4 mps 745 mmHg 80%
    01:00 -7°C° 0 mm 4 mps 745 mmHg 82%
    02:00 -6°C° 0 mm 3 mps 746 mmHg 83%
    03:00 -7°C° 0 mm 3 mps 747 mmHg 84%
    04:00 -7°C° 0 mm 3 mps 747 mmHg 85%
    05:00 -7°C° 0 mm 3 mps 748 mmHg 87%
    06:00 -8°C° 0 mm 3 mps 748 mmHg 87%
    07:00 -8°C° 0 mm 3 mps 749 mmHg 88%
    08:00 -7°C° 0 mm 2 mps 749 mmHg 89%
    09:00 -6°C° 0 mm 2 mps 750 mmHg 86%
    10:00 -5°C° 0 mm 2 mps 750 mmHg 83%
    11:00 -4°C° 0 mm 2 mps 751 mmHg 80%
    12:00 -4°C° 0 mm 2 mps 751 mmHg 77%
    13:00 -3°C° 0 mm 2 mps 751 mmHg 75%
    14:00 -1°C° 0 mm 1 mps 751 mmHg 72%
    15:00 -2°C° 0 mm 1 mps 751 mmHg 76%
    16:00 -3°C° 0 mm 1 mps 751 mmHg 79%
    17:00 -4°C° 0 mm 1 mps 751 mmHg 83%
    18:00 -4°C° 0 mm 1 mps 751 mmHg 84%
    19:00 -4°C° 0 mm 1 mps 751 mmHg 84%
    20:00 -6°C° 0 mm 1 mps 751 mmHg 85%
    21:00 -6°C° 0 mm 2 mps 750 mmHg 84%
    22:00 -6°C° 0 mm 2 mps 750 mmHg 84%
    23:00 -6°C° 0 mm 2 mps 750 mmHg 84%

    Tomorrow, 19 February, Tuesday

    Time Temperature Precipitation Wind Pressure Humidity
    00:00 -7°C° 0 mm 3 mps 749 mmHg 82%
    01:00 -7°C° 0 mm 3 mps 749 mmHg 81%
    02:00 -7°C° 0 mm 3 mps 749 mmHg 80%
    03:00 -7°C° 0 mm 4 mps 748 mmHg 78%
    04:00 -7°C° 0 mm 4 mps 748 mmHg 77%
    05:00 -7°C° 0 mm 4 mps 747 mmHg 76%
    06:00 -7°C° 0 mm 4 mps 746 mmHg 77%
    07:00 -7°C° 0 mm 4 mps 746 mmHg 78%
    08:00 -6°C° 0 mm 5 mps 746 mmHg 79%
    09:00 -5°C° 0 mm 5 mps 745 mmHg 78%
    10:00 -4°C° 0 mm 5 mps 745 mmHg 77%
    11:00 -2°C° 0 mm 5 mps 744 mmHg 77%
    12:00 -1°C° 0 mm 5 mps 744 mmHg 77%
    13:00 -1°C° 0 mm 5 mps 743 mmHg 77%
    14:00 0°C° 0 mm 5 mps 742 mmHg 77%
    15:00 -1°C° 0 mm 5 mps 742 mmHg 79%
    16:00 -1°C° 0 mm 5 mps 741 mmHg 80%
    17:00 -2°C° 0 mm 5 mps 741 mmHg 82%
    18:00 -2°C° 0 mm 5 mps 740 mmHg 84%
    19:00 -2°C° 0 mm 5 mps 740 mmHg 86%
    20:00 -2°C° 0 mm 5 mps 739 mmHg 88%
    21:00 -2°C° 0 mm 5 mps 739 mmHg 89%
    22:00 -1°C° 0 mm 5 mps 738 mmHg 89%
    23:00 -1°C° 0 mm 5 mps 737 mmHg 90%

    Day after tomorrow, 20 February, Wednesday

    Time Temperature Precipitation Wind Pressure Humidity
    00:00 -1°C° 0 mm 5 mps 737 mmHg 91%
    01:00 -1°C° 0 mm 5 mps 736 mmHg 91%
    02:00 0°C° 0 mm 5 mps 736 mmHg 92%
    03:00 0°C° 0.2 mm 5 mps 735 mmHg 92%
    04:00 0°C° 0.2 mm 5 mps 735 mmHg 92%
    05:00 0°C° 0.2 mm 5 mps 734 mmHg 92%
    06:00 0°C° 0.3 mm 5 mps 734 mmHg 92%
    07:00 0°C° 0.3 mm 5 mps 734 mmHg 93%
    08:00 0°C° 0.3 mm 4 mps 734 mmHg 93%
    09:00 0°C° 0.1 mm 4 mps 734 mmHg 91%
    10:00 0°C° 0.1 mm 4 mps 734 mmHg 89%
    11:00 0°C° 0.1 mm 4 mps 734 mmHg 87%
    12:00 0°C° 0.2 mm 5 mps 734 mmHg 87%
    13:00 0°C° 0.2 mm 5 mps 734 mmHg 87%
    14:00 0°C° 0.2 mm 5 mps 733 mmHg 88%
    15:00 0°C° 0.3 mm 5 mps 733 mmHg 87%
    16:00 0°C° 0.3 mm 5 mps 733 mmHg 87%
    17:00 0°C° 0.3 mm 5 mps 733 mmHg 86%
    18:00 -1°C° 0.2 mm 5 mps 733 mmHg 83%
    19:00 -1°C° 0.2 mm 5 mps 733 mmHg 80%
    20:00 -2°C° 0.2 mm 5 mps 733 mmHg 77%
    21:00 -4°C° 0.1 mm 5 mps 733 mmHg 78%
    22:00 -5°C° 0.1 mm 5 mps 733 mmHg 80%
    23:00 -5°C° 0.1 mm 5 mps 734 mmHg 81%

    21 February, Thursday

    Time Temperature Precipitation Wind Pressure Humidity
    00:00 -5°C° 0.2 mm 5 mps 734 mmHg 81%
    01:00 -5°C° 0.2 mm 6 mps 734 mmHg 82%
    02:00 -6°C° 0.2 mm 6 mps 734 mmHg 82%
    03:00 -6°C° 0.3 mm 6 mps 734 mmHg 83%
    04:00 -6°C° 0.3 mm 6 mps 734 mmHg 84%
    05:00 -6°C° 0.3 mm 6 mps 735 mmHg 85%
    06:00 -6°C° 0.2 mm 6 mps 735 mmHg 82%
    07:00 -7°C° 0.2 mm 7 mps 736 mmHg 79%
    08:00 -8°C° 0.2 mm 7 mps 736 mmHg 76%
    09:00 -8°C° 0.1 mm 7 mps 737 mmHg 76%
    10:00 -8°C° 0.1 mm 7 mps 738 mmHg 76%
    11:00 -8°C° 0.1 mm 7 mps 739 mmHg 76%
    12:00 -8°C° 0.1 mm 7 mps 740 mmHg 75%
    13:00 -8°C° 0.1 mm 7 mps 741 mmHg 75%
    14:00 -8°C° 0.1 mm 7 mps 742 mmHg 74%
    15:00 -8°C° 0.1 mm 7 mps 742 mmHg 75%
    16:00 -9°C° 0.1 mm 6 mps 743 mmHg 76%
    17:00 -9°C° 0.1 mm 6 mps 744 mmHg 76%
    18:00 -10°C° 0.1 mm 6 mps 745 mmHg 76%
    19:00 -10°C° 0.1 mm 6 mps 746 mmHg 76%
    20:00 -11°C° 0.1 mm 6 mps 747 mmHg 75%
    21:00 -11°C° 0 mm 5 mps 747 mmHg 76%
    22:00 -12°C° 0 mm 5 mps 748 mmHg 76%
    23:00 -12°C° 0 mm 5 mps 749 mmHg 76%

    22 February, Friday

    Time Temperature Precipitation Wind Pressure Humidity
    00:00 -12°C° 0 mm 5 mps 749 mmHg 77%
    01:00 -13°C° 0 mm 5 mps 750 mmHg 77%
    02:00 -13°C° 0 mm 5 mps 750 mmHg 78%
    03:00 -13°C° 0 mm 5 mps 751 mmHg 78%
    04:00 -14°C° 0 mm 5 mps 752 mmHg 79%
    05:00 -14°C° 0 mm 5 mps 752 mmHg 79%
    06:00 -14°C° 0 mm 5 mps 753 mmHg 77%
    07:00 -14°C° 0 mm 5 mps 754 mmHg 75%
    08:00 -14°C° 0 mm 4 mps 755 mmHg 73%
    09:00 -12°C° 0 mm 4 mps 756 mmHg 70%
    10:00 -10°C° 0 mm 4 mps 757 mmHg 67%
    11:00 -9°C° 0 mm 4 mps 757 mmHg 64%
    12:00 -9°C° 0 mm 4 mps 758 mmHg 64%
    13:00 -8°C° 0 mm 4 mps 758 mmHg 63%
    14:00 -7°C° 0 mm 4 mps 758 mmHg 63%
    15:00 -8°C° 0 mm 4 mps 758 mmHg 67%
    16:00 -8°C° 0 mm 3 mps 759 mmHg 70%
    17:00 -8°C° 0 mm 3 mps 759 mmHg 74%
    18:00 -9°C° 0 mm 3 mps 759 mmHg 77%
    19:00 -8°C° 0 mm 2 mps 760 mmHg 80%
    20:00 -9°C° 0 mm 2 mps 760 mmHg 82%
    21:00 -9°C° 0 mm 2 mps 760 mmHg 84%
    22:00 -9°C° 0 mm 2 mps 760 mmHg 85%
    23:00 -10°C° 0 mm 2 mps 760 mmHg 86%

    23 February, Saturday

    Time Temperature Precipitation Wind Pressure Humidity
    00:00 -10°C° 0 mm 2 mps 760 mmHg 85%
    01:00 -10°C° 0 mm 2 mps 759 mmHg 85%
    02:00 -10°C° 0 mm 2 mps 759 mmHg 85%
    03:00 -9°C° 0 mm 2 mps 758 mmHg 82%
    04:00 -9°C° 0 mm 2 mps 758 mmHg 80%
    05:00 -8°C° 0 mm 2 mps 757 mmHg 77%
    06:00 -8°C° 0.3 mm 2 mps 756 mmHg 82%
    07:00 -9°C° 0.3 mm 3 mps 756 mmHg 87%
    08:00 -9°C° 0.3 mm 3 mps 755 mmHg 92%
    09:00 -8°C° 0.9 mm 3 mps 754 mmHg 92%
    10:00 -8°C° 0.9 mm 3 mps 754 mmHg 93%
    11:00 -7°C° 0.9 mm 3 mps 753 mmHg 94%
    12:00 -7°C° 0.4 mm 3 mps 753 mmHg 93%
    13:00 -6°C° 0.4 mm 3 mps 752 mmHg 93%
    14:00 -6°C° 0.4 mm 3 mps 752 mmHg 93%
    15:00 -5°C° 0.2 mm 3 mps 751 mmHg 93%
    16:00 -4°C° 0.2 mm 3 mps 751 mmHg 94%
    17:00 -3°C° 0.2 mm 2 mps 751 mmHg 95%
    18:00 -3°C° 0.1 mm 2 mps 751 mmHg 95%
    19:00 -2°C° 0.1 mm 2 mps 751 mmHg 96%
    20:00 -2°C° 0.1 mm 2 mps 752 mmHg 97%
    21:00 -2°C° 0 mm 2 mps 752 mmHg 97%
    22:00 -1°C° 0 mm 2 mps 752 mmHg 97%
    23:00 -1°C° 0 mm 2 mps 752 mmHg 97%
    Show more